ORBCOMM FM117

Last updated on Wed Sep 23 2026 00:03:43 GMT+0000 (Coordinated Universal Time)

1 41188U 15081K 26265.22617010 .00000217 00000+0 81948-4 0 9990 2 41188 47.0006 81.9661 0002990 285.1211 74.9344 14.58966410574294
UTC large
Height (km)
Speed (km/s)
/
Latitude / Longitude
Inclination (degrees)
Orbital Period (minutes)
Azimuth
Elevation
Range (km)
Doppler Factor

Next 0 passes for location: London (51.5072 / 0.1276)

No passes found over London.
ORBCOMM FM117